Terug naar catalogus

CZ-3B DEB

ActiefGTO
NORAD 40179·DEBRIS·🇨🇳 China

Gelanceerd Dec 19, 2011 vanaf Xichang Satellite Launch Center

Loading…

TLE

VersSource: Space-Track

Epoch: Sep 14, 2026, 11:44 UTC

1 40179U 11077C   26257.48917057  .00000029  00000-0  30509-2 0  9990
2 40179  25.7285 274.0769 7440086 189.2748 138.7574  1.91936144 89825

Volg CZ-3B DEB in realtime met AllMySat

Download on the App Store